Weather History for KSUS - September, 2013

Change the Weather History Date:

Saturday, September 28, 2013

  Actual Average Record
Temperature  
Mean Temperature 75 °F -  
Max Temperature 84 °F 73 °F 86 °F (2007)
Min Temperature 66 °F 47 °F 41 °F (2003)
Cooling Degree Days 10    
Growing Degree Days 25 (Base 50)    
Moisture  
Dew Point 62 °F    
Average Humidity 68    
Maximum Humidity 93    
Minimum Humidity 47    
Precipitation  
Precipitation 0.01 in - - ()
Sea Level Pressure  
Sea Level Pressure 29.97 in    
Wind  
Wind Speed 5 mph (SSW)    
Max Wind Speed 16 mph    
Max Gust Speed 23 mph    
Visibility 10 miles    
Events Rain    
Averages and records for this station are not official NWS values.
T = Trace of Precipitation, MM = Missing Value Source: NWS Daily Summary

Daily Weather History Graph

Daily Weather History Graph

Search for Another Location

Airport or City:

Trip Planner

Search our weather history database for the weather conditions in past years. The results will help you decide how hot, cold, wet, or windy it might be!

Date:

Astronomy

Sep. 28, 2013 Rise Set
Actual Time 6:55 AM CDT 6:49 PM CDT
Civil Twilight 6:29 AM CDT 7:16 PM CDT
Nautical Twilight 5:58 AM CDT 7:46 PM CDT
Astronomical Twilight 5:27 AM CDT 8:18 PM CDT
Moon 12:47 AM CDT 3:05 PM CDT
Length of Visible Light 12h 46m
Length of Day
11h 53m
Waning Crescent, 36% of the Moon is Illuminated
Sep 28
Waning Crescent
Oct 4
New
Oct 11
First Quarter
Oct 18
Full
Oct 26
Last Quarter

Hourly Weather History & Observations

Time (CDT) Temp. Heat Index Dew Point Humidity Pressure Visibility Wind Dir Wind Speed Gust Speed Precip Events Conditions
12:54 AM 68.0 °F - 55.9 °F 65% 29.99 in 10.0 mi Calm Calm - N/A   Clear
1:54 AM 66.0 °F - 55.0 °F 68% 30.00 in 10.0 mi Calm Calm - N/A   Clear
2:54 AM 68.0 °F - 54.0 °F 61% 29.98 in 10.0 mi SE 5.8 mph - N/A   Partly Cloudy
3:54 AM 66.9 °F - 55.0 °F 66% 29.98 in 10.0 mi SSE 3.5 mph - N/A   Clear
4:54 AM 66.9 °F - 55.9 °F 68% 29.98 in 10.0 mi South 5.8 mph - N/A   Clear
5:54 AM 66.9 °F - 57.0 °F 70% 29.99 in 10.0 mi SSE 4.6 mph - N/A   Scattered Clouds
6:54 AM 66.9 °F - 57.9 °F 73% 30.01 in 10.0 mi South 6.9 mph - N/A   Mostly Cloudy
7:54 AM 68.0 °F - 59.0 °F 73% 30.01 in 10.0 mi Variable 5.8 mph - N/A   Scattered Clouds
8:54 AM 71.1 °F - 60.1 °F 68% 30.02 in 10.0 mi Variable 6.9 mph - N/A   Scattered Clouds
9:54 AM 75.0 °F - 61.0 °F 62% 30.01 in 10.0 mi South 10.4 mph 16.1 mph N/A   Scattered Clouds
10:54 AM 79.0 °F - 62.1 °F 56% 29.99 in 10.0 mi South 15.0 mph 21.9 mph N/A   Scattered Clouds
11:54 AM 81.0 °F 81.9 °F 62.1 °F 52% 29.98 in 10.0 mi South 13.8 mph 23.0 mph N/A   Mostly Cloudy
12:54 PM 82.9 °F 83.7 °F 62.1 °F 49% 29.96 in 10.0 mi SSW 16.1 mph 21.9 mph N/A   Mostly Cloudy
1:54 PM 84.0 °F 84.5 °F 62.1 °F 47% 29.94 in 10.0 mi SSW 8.1 mph 17.3 mph N/A   Mostly Cloudy
2:54 PM 81.0 °F 81.9 °F 62.1 °F 52% 29.94 in 10.0 mi SSW 5.8 mph - N/A   Overcast
3:54 PM 81.0 °F 82.2 °F 63.0 °F 54% 29.92 in 10.0 mi South 5.8 mph - N/A   Overcast
4:54 PM 81.0 °F 82.2 °F 63.0 °F 54% 29.92 in 10.0 mi Variable 5.8 mph - N/A   Overcast
5:54 PM 77.0 °F - 66.0 °F 69% 29.93 in 10.0 mi SSW 3.5 mph - 0.00 in   Overcast
6:54 PM 77.0 °F - 64.0 °F 64% 29.94 in 10.0 mi SSW 6.9 mph - N/A   Overcast
7:54 PM 75.0 °F - 64.9 °F 71% 29.94 in 10.0 mi SW 5.8 mph - N/A   Partly Cloudy
8:54 PM 73.9 °F - 64.9 °F 73% 29.94 in 10.0 mi Calm Calm - N/A   Scattered Clouds
9:54 PM 71.1 °F - 66.9 °F 87% 29.97 in 10.0 mi WSW 6.9 mph - 0.00 in   Overcast
10:54 PM 70.0 °F - 68.0 °F 93% 29.97 in 7.0 mi SW 3.5 mph - 0.01 in   Overcast
11:13 PM 71.6 °F - 68.0 °F 88% 29.99 in 7.0 mi SSW 4.6 mph - N/A   Overcast
11:31 PM 69.8 °F - 66.2 °F 88% 30.00 in 8.0 mi NW 12.7 mph - 0.00 in Rain Light Rain
11:54 PM 66.9 °F - 64.0 °F 90% 29.99 in 10.0 mi NW 11.5 mph - 0.00 in   Overcast